Voltar ao catálogo

ARIANE 5 R/B

AtivoHEO
NORAD 33754·ROCKET BODY·🇫🇷 France

Lançado Feb 12, 2009 de Guiana Space Centre

Loading…

Próximas Passagens (próximas 24 horas)

TLE

AtualizadoSource: Space-Track

Época: Sep 13, 2026, 23:30 UTC

1 33754U 09008F   26256.97944784  .00001921  00000-0  83993-3 0  9990
2 33754   2.4368 354.9897 7093301  17.0015 357.8239  2.50773335152582

Acompanhe ARIANE 5 R/B em tempo real com AllMySat

Download on the App Store